Regional Weather Roundup
Issued by NWS

Home | Current Version | Previous Version | Text Only | Print | Product List | Glossary On
Versions: 1 2 3 4 5 6 7 8 9 10 11 12 13 14 15 16 17 18 19 20 21 22 23 24 25 26 27 28 29 30 31 32 33 34 35 36 37 38 39 40 41 42 43 44 45 46 47 48 49 50
000
ASUS43 KMKX 230121
RWRWI

WISCONSIN REGIONAL WEATHER ROUNDUP
NATIONAL WEATHER SERVICE MILWAUKEE/SULLIVAN WI
800 PM CDT SUN OCT 22 2017

NOTE: "FAIR" INDICATES FEW OR NO CLOUDS BELOW 12,000 FEET WITH NO
SIGNIFICANT WEATHER AND/OR OBSTRUCTIONS TO VISIBILITY.

WIZ001-002-006>008-014>016-023>028-230200-
NORTHWEST WISCONSIN

CITY           SKY/WX    TMP DP  RH WIND       PRES   REMARKS
SUPERIOR ARPT  CLEAR     46  32  58 S6        29.88S
ASHLAND        CLEAR     50  34  54 S7        29.92R
HAYWARD        PTCLDY    42  35  76 CALM      29.94R
SIREN          CLEAR     51  32  48 S6        29.92F
CUMBERLAND     CLEAR     45  32  61 S6        29.95S
RICE LAKE      CLEAR     48  35  60 CALM      29.97S
CHETEK         CLEAR     44  36  74 CALM      29.96S
LADYSMITH      CLEAR     49  41  76 SE7       29.99S
EAU CLAIRE     CLEAR     50  42  74 S10       29.97S
MENOMONIE      CLEAR     47  36  63 SE6       29.97S
NEW RICHMOND   PTCLDY    49  32  52 S6        29.95S
OSCEOLA        CLEAR     48  33  56 S7        29.96S
$$

WIZ003>005-009-010-017-018-230200-
NORTH CENTRAL WISCONSIN

CITY           SKY/WX    TMP DP  RH WIND       PRES   REMARKS
MANITOWISH WTR PTCLDY    42  41  99 S5        29.96S
ARBOR VITAE    MOCLDY    44  40  86 S5        29.98R
WOODRUFF       MOCLDY    44  40  86 S5        29.98R
RHINELANDER    CLOUDY    44  42  93 S5        29.99S
EAGLE RIVER    NOT AVBL
LAND O LAKES   CLOUDY    43  40  89 CALM      29.99S
PHILLIPS       CLEAR     44  40  86 S5        29.97S
TOMAHAWK       PTCLDY    41  39  93 CALM      30.00S
MEDFORD        PTCLDY    42  39  91 S7        29.99S
MERRILL        MOCLDY    46  42  88 CALM      30.00F
$$

WIZ029-030-035-036-043>047-230200-
CENTRAL WISCONSIN

CITY           SKY/WX    TMP DP  RH WIND       PRES   REMARKS
WAUSAU         CLOUDY    47  44  90 SW6       30.00S
MOSINEE        CLEAR     45  45 100 S7        30.03R
MARSHFIELD     MOCLDY    44  41  89 S5        30.01R
STEVENS POINT  CLOUDY    45  45 100 S3        30.03S
WAUPACA        CLOUDY    50  49  95 CALM      30.04S
WAUTOMA        CLOUDY   N/A N/A N/A SW6       30.06R
WISC RAPIDS    CLOUDY    46  45  96 SW5       30.04R
CAMP DOUGLAS   NOT AVBL
$$

WIZ011>013-019>022-031-037>040-048>050-230200-
NORTHEAST WISCONSIN

CITY           SKY/WX    TMP DP  RH WIND       PRES   REMARKS
ANTIGO         MOCLDY    44  43  97 SW5       30.02R
SHAWANO        CLOUDY    51  48  92 CALM      30.03R
OCONTO         CLOUDY    48  47  97 CALM      30.02R
STURGEON BAY   LGT RAIN  50  49  96 SW5       30.03R
GREEN BAY      CLOUDY    50  49  96 SW5       30.03S
MANITOWOC      LGT RAIN  50  49  96 SW3       30.04S
APPLETON       MOCLDY    48  48 100 CALM      30.02S
CLINTONVILLE   CLOUDY    48  48 100 SW5       30.03R
OSHKOSH        CLOUDY    49  48  97 SW3       30.04S
$$

WIZ032>034-041-042-053>061-230200-
SOUTHWEST WISCONSIN

CITY           SKY/WX    TMP DP  RH WIND       PRES   REMARKS
LA CROSSE      PTCLDY    50  45  83 S7        30.02S
SPARTA         PTCLDY    41  41  99 CALM      30.04S
VIROQUA        PTCLDY    48  46  92 S8        30.04S
BOSCOBEL       CLOUDY    49  47  93 CALM      30.05F
PRAIRIE DU CHI CLOUDY    48  45  89 CALM      30.04F
PLATTEVILLE    CLOUDY    49  49 100 CALM      30.06F
$$

WIZ056-057-062-063-064-067-068-230200-
SOUTH CENTRAL WISCONSIN

CITY           SKY/WX    TMP DP  RH WIND       PRES   REMARKS
REEDSBURG      CLOUDY    48  48 100 CALM      30.05S
BARABOO/DELLS  CLOUDY    48  46  93 CALM      30.05S
LONE ROCK      CLOUDY    49  49 100 CALM      30.06S
MINERAL POINT  CLOUDY    50  50 100 SW3       30.06F
MADISON        CLOUDY    48  47  96 CALM      30.06S
MIDDLETON      CLOUDY    50  49  99 CALM      30.06S
WATERTOWN      CLOUDY    49  49 100 CALM      30.05S
MONROE         CLOUDY    48  43  81 W5        30.06S
JANESVILLE     MOCLDY    50  50 100 NW5       30.05S
$$

WIZ051-052-058>065-066-070>072-230200-
SOUTHEAST WISCONSIN

CITY           SKY/WX    TMP DP  RH WIND       PRES   REMARKS
MILWAUKEE      LGT RAIN  52  49  89 CALM      30.04F
WAUKESHA       CLOUDY    48  46  93 CALM      30.06S
MILWAUKEE/TIMM DRIZZLE   50  46  87 NW5       30.05F
RACINE         LGT RAIN  51  50  96 NW3       30.05S
BURLINGTON     DRIZZLE   49  49 100 NW5       30.05S
KENOSHA        LGT RAIN  51  49  92 CALM      30.04F
FOND DU LAC    CLOUDY    50  47  89 W5        30.06R
SHEBOYGAN      LGT RAIN  50  50 100 CALM      30.04S
WEST BEND      CLOUDY    46  46 100 CALM      30.05S
JUNEAU         CLOUDY    48  47  97 CALM      30.07R
$$

LSZ147-162-230200-
LAKE SUPERIOR

STATION/POSITION TIME  TEMP    WIND        PRES    WAVE
                       AIR SEA DIR/SP/G            HT/PER
                 (UTC) (F)     (DEG/KT/KT) (MB)    (FT/S)
W MID LAKE BUOY  0050   53 52              1012.1R   3/ 5
DEVILS ISLAND    0100   56     190/  9/ 11 1012.5R
PORT WING        2340          180/  4/  5 1012.2R
SAXON HARBOR     0030   48     200/  3/  5 1012.9R
$$

LMZ867-665-643>646-230200-
LAKE MICHIGAN

STATION/POSITION TIME  TEMP    WIND        PRES    WAVE
                       AIR SEA DIR/SP/G            HT/PER
                 (UTC) (F)     (DEG/KT/KT) (MB)    (FT/S)
S GREEN BAY BUOY 0100   52 58  250/  6/  8 1016.4
N MID LAKE BUOY  0050   51 57  240/  6/  8 1017.1R   3/ 6
NORTHPORT PIER   0040   51     190/  2/  5 1016.3R
KEWAUNEE LAKESHO 0054   51     230/  3/  5 1016.1R
SHEBOYGAN LAKESH 0100   50     180/  3/  3 1017.3F
PORT WASHINGTON  0030   51      CALM  /  2 1018.3S
MILWAUKEE LAKESH 0100   51     300/  3/  4   N/A
S MID LAKE BUOY  0050   54 58   10/ 17/ 19 1016.7R   4/ 6
KENOSHA   LAKESH 0100   51      10/  5/  7 1016.9
$$

TC  - TEMPERATURE IN CELSIUS
VSB - VISIBILITY IN STATUTE MILES
WCI - WIND CHILL INDEX
HX  - HEAT INDEX




USA.gov is the U.S. government's official web portal to all federal, state and local government web resources and services.